When you browse on this site, cookies collect data to enhance your experience and personalize the content and advertising you see.
Visit our Privacy Policy to learn more. By continuing to use the site, you agree to this use of cookies and data.
  • En España
  • Lista de países
  • Para 7 días
  • Temperatura del agua
  • El tiempo en el mapa
  • Informadores
  • user-avatar
    Iniciar sesión

    Tiempo cada hora Tarim

    Hoy, 6 Junio, Sábado

    Tiempo Temperatura Precipitaciones Viento Presión Humedad
    00:00 +34°C° 0 mm 1 mps 705 mmHg 29%
    01:00 +33°C° 0 mm 1 mps 705 mmHg 30%
    02:00 +33°C° 0 mm 1 mps 704 mmHg 30%
    03:00 +32°C° 0 mm 1 mps 704 mmHg 31%
    04:00 +34°C° 0 mm 2 mps 704 mmHg 30%
    05:00 +34°C° 0 mm 2 mps 705 mmHg 29%
    06:00 +34°C° 0 mm 2 mps 706 mmHg 28%
    07:00 +36°C° 0 mm 2 mps 706 mmHg 25%
    08:00 +37°C° 0 mm 3 mps 706 mmHg 22%
    09:00 +40°C° 0 mm 3 mps 706 mmHg 18%
    10:00 +42°C° 0 mm 3 mps 706 mmHg 16%
    11:00 +43°C° 0 mm 3 mps 706 mmHg 14%
    12:00 +44°C° 0 mm 3 mps 705 mmHg 12%
    13:00 +43°C° 0 mm 2 mps 705 mmHg 11%
    14:00 +43°C° 0 mm 2 mps 704 mmHg 10%
    15:00 +43°C° 0 mm 2 mps 703 mmHg 9%
    16:00 +43°C° 0 mm 2 mps 703 mmHg 10%
    17:00 +43°C° 0 mm 2 mps 703 mmHg 10%
    18:00 +42°C° 0 mm 2 mps 703 mmHg 11%
    19:00 +41°C° 0 mm 2 mps 703 mmHg 12%
    20:00 +40°C° 0 mm 2 mps 703 mmHg 13%
    21:00 +38°C° 0 mm 2 mps 703 mmHg 14%
    22:00 +37°C° 0 mm 2 mps 703 mmHg 18%
    23:00 +36°C° 0 mm 2 mps 703 mmHg 22%

    Mañana, 7 Junio, Domingo

    Tiempo Temperatura Precipitaciones Viento Presión Humedad
    00:00 +35°C° 0 mm 3 mps 703 mmHg 27%
    01:00 +35°C° 0 mm 2 mps 702 mmHg 28%
    02:00 +34°C° 0 mm 2 mps 702 mmHg 29%
    03:00 +34°C° 0 mm 2 mps 701 mmHg 30%
    04:00 +32°C° 0 mm 2 mps 702 mmHg 30%
    05:00 +32°C° 0 mm 2 mps 702 mmHg 31%
    06:00 +32°C° 0 mm 2 mps 703 mmHg 31%
    07:00 +35°C° 0 mm 3 mps 703 mmHg 26%
    08:00 +38°C° 0 mm 3 mps 704 mmHg 21%
    09:00 +40°C° 0 mm 3 mps 704 mmHg 16%
    10:00 +42°C° 0 mm 4 mps 704 mmHg 13%
    11:00 +44°C° 0 mm 4 mps 704 mmHg 10%
    12:00 +45°C° 0 mm 4 mps 704 mmHg 8%
    13:00 +45°C° 0 mm 4 mps 703 mmHg 7%
    14:00 +46°C° 0 mm 5 mps 702 mmHg 7%
    15:00 +47°C° 0 mm 6 mps 702 mmHg 7%
    16:00 +46°C° 0 mm 5 mps 702 mmHg 8%
    17:00 +45°C° 0 mm 5 mps 702 mmHg 8%
    18:00 +43°C° 0 mm 5 mps 702 mmHg 9%
    19:00 +42°C° 0 mm 4 mps 702 mmHg 10%
    20:00 +40°C° 0 mm 3 mps 702 mmHg 11%
    21:00 +37°C° 0 mm 1 mps 702 mmHg 13%
    22:00 +37°C° 0 mm 1 mps 702 mmHg 13%
    23:00 +36°C° 0 mm 1 mps 702 mmHg 14%

    Pasado mañana, 8 Junio, Lunes

    Tiempo Temperatura Precipitaciones Viento Presión Humedad
    00:00 +35°C° 0 mm 1 mps 702 mmHg 14%
    01:00 +35°C° 0 mm 1 mps 702 mmHg 14%
    02:00 +35°C° 0 mm 2 mps 701 mmHg 15%
    03:00 +35°C° 0 mm 2 mps 701 mmHg 15%
    04:00 +34°C° 0 mm 2 mps 701 mmHg 15%
    05:00 +34°C° 0 mm 2 mps 702 mmHg 15%
    06:00 +34°C° 0 mm 2 mps 702 mmHg 16%
    07:00 +36°C° 0 mm 3 mps 703 mmHg 13%
    08:00 +38°C° 0 mm 3 mps 703 mmHg 11%
    09:00 +41°C° 0 mm 4 mps 704 mmHg 9%
    10:00 +42°C° 0 mm 4 mps 703 mmHg 9%
    11:00 +43°C° 0 mm 4 mps 703 mmHg 8%
    12:00 +44°C° 0 mm 4 mps 703 mmHg 8%
    13:00 +45°C° 0 mm 4 mps 702 mmHg 7%
    14:00 +45°C° 0 mm 3 mps 702 mmHg 7%
    15:00 +45°C° 0 mm 3 mps 701 mmHg 7%
    16:00 +45°C° 0 mm 3 mps 701 mmHg 7%
    17:00 +44°C° 0 mm 4 mps 702 mmHg 8%
    18:00 +43°C° 0 mm 4 mps 702 mmHg 8%
    19:00 +42°C° 0 mm 3 mps 702 mmHg 9%
    20:00 +40°C° 0 mm 3 mps 702 mmHg 10%
    21:00 +39°C° 0 mm 3 mps 703 mmHg 10%
    22:00 +38°C° 0 mm 2 mps 702 mmHg 12%
    23:00 +37°C° 0 mm 2 mps 702 mmHg 13%

    9 Junio, Martes

    Tiempo Temperatura Precipitaciones Viento Presión Humedad
    00:00 +35°C° 0 mm 1 mps 702 mmHg 15%
    01:00 +34°C° 0 mm 1 mps 701 mmHg 16%
    02:00 +34°C° 0 mm 1 mps 701 mmHg 18%
    03:00 +33°C° 0 mm 1 mps 701 mmHg 19%
    04:00 +33°C° 0 mm 1 mps 701 mmHg 18%
    05:00 +34°C° 0 mm 2 mps 702 mmHg 16%
    06:00 +34°C° 0 mm 2 mps 703 mmHg 15%
    07:00 +37°C° 0 mm 3 mps 703 mmHg 13%
    08:00 +40°C° 0 mm 5 mps 704 mmHg 11%
    09:00 +42°C° 0 mm 6 mps 704 mmHg 9%
    10:00 +44°C° 0 mm 6 mps 704 mmHg 8%
    11:00 +45°C° 0 mm 6 mps 703 mmHg 7%
    12:00 +46°C° 0 mm 5 mps 703 mmHg 7%
    13:00 +47°C° 0 mm 6 mps 703 mmHg 7%
    14:00 +47°C° 0 mm 6 mps 702 mmHg 7%
    15:00 +47°C° 0 mm 7 mps 702 mmHg 6%
    16:00 +46°C° 0 mm 6 mps 702 mmHg 7%
    17:00 +45°C° 0 mm 5 mps 702 mmHg 7%
    18:00 +43°C° 0 mm 4 mps 702 mmHg 8%
    19:00 +42°C° 0 mm 4 mps 702 mmHg 9%
    20:00 +40°C° 0 mm 3 mps 702 mmHg 10%
    21:00 +39°C° 0 mm 3 mps 703 mmHg 10%
    22:00 +38°C° 0 mm 2 mps 702 mmHg 12%
    23:00 +36°C° 0 mm 1 mps 702 mmHg 13%

    10 Junio, Miércoles

    Tiempo Temperatura Precipitaciones Viento Presión Humedad
    00:00 +32°C° 0 mm 0 mps 702 mmHg 14%
    01:00 +34°C° 0 mm 1 mps 702 mmHg 14%
    02:00 +33°C° 0 mm 1 mps 701 mmHg 14%
    03:00 +33°C° 0 mm 1 mps 701 mmHg 14%
    04:00 +33°C° 0 mm 1 mps 702 mmHg 14%
    05:00 +33°C° 0 mm 1 mps 702 mmHg 14%
    06:00 +33°C° 0 mm 1 mps 702 mmHg 14%
    07:00 +36°C° 0 mm 2 mps 703 mmHg 12%
    08:00 +39°C° 0 mm 3 mps 703 mmHg 9%
    09:00 +42°C° 0 mm 4 mps 704 mmHg 7%
    10:00 +45°C° 0 mm 5 mps 703 mmHg 7%
    11:00 +46°C° 0 mm 6 mps 703 mmHg 6%
    12:00 +47°C° 0 mm 7 mps 703 mmHg 5%
    13:00 +47°C° 0 mm 7 mps 702 mmHg 5%
    14:00 +47°C° 0 mm 7 mps 702 mmHg 5%
    15:00 +47°C° 0 mm 7 mps 701 mmHg 5%
    16:00 +46°C° 0 mm 6 mps 701 mmHg 5%
    17:00 +46°C° 0 mm 6 mps 701 mmHg 6%
    18:00 +45°C° 0 mm 5 mps 701 mmHg 6%
    19:00 +42°C° 0 mm 4 mps 701 mmHg 7%
    20:00 +40°C° 0 mm 3 mps 702 mmHg 7%
    21:00 +38°C° 0 mm 3 mps 702 mmHg 8%
    22:00 +37°C° 0 mm 2 mps 702 mmHg 11%
    23:00 +36°C° 0 mm 2 mps 701 mmHg 13%

    11 Junio, Jueves

    Tiempo Temperatura Precipitaciones Viento Presión Humedad
    00:00 +34°C° 0 mm 1 mps 701 mmHg 16%
    01:00 +34°C° 0 mm 1 mps 701 mmHg 20%
    02:00 +33°C° 0 mm 1 mps 701 mmHg 24%
    03:00 +33°C° 0 mm 1 mps 700 mmHg 28%
    04:00 +32°C° 0 mm 1 mps 700 mmHg 32%
    05:00 +32°C° 0 mm 1 mps 701 mmHg 37%
    06:00 +32°C° 0 mm 1 mps 701 mmHg 42%
    07:00 +34°C° 0 mm 1 mps 701 mmHg 36%
    08:00 +36°C° 0 mm 1 mps 702 mmHg 30%
    09:00 +39°C° 0 mm 1 mps 702 mmHg 24%
    10:00 +41°C° 0 mm 2 mps 702 mmHg 20%
    11:00 +43°C° 0 mm 3 mps 701 mmHg 15%
    12:00 +45°C° 0 mm 4 mps 701 mmHg 11%
    13:00 +45°C° 0 mm 4 mps 701 mmHg 11%
    14:00 +47°C° 0 mm 5 mps 700 mmHg 10%
    15:00 +47°C° 0 mm 6 mps 700 mmHg 10%
    16:00 +46°C° 0 mm 6 mps 700 mmHg 11%
    17:00 +45°C° 0 mm 5 mps 700 mmHg 11%
    18:00 +45°C° 0 mm 5 mps 700 mmHg 12%
    19:00 +43°C° 0 mm 5 mps 700 mmHg 13%
    20:00 +42°C° 0 mm 5 mps 701 mmHg 15%
    21:00 +41°C° 0 mm 5 mps 701 mmHg 16%
    22:00 +40°C° 0 mm 4 mps 701 mmHg 27%
    23:00 +37°C° 0 mm 4 mps 701 mmHg 37%
    Mostrar más